timestamp,wind_dir_avg,wind_spd_avg,wind_spd_max_dir,wind_spd_gust,battery_voltage,lat,long
2024-02-13 00:04:00+00:00,315.0,0.01,258.0,0.0,12.25,47.59359,-54.27349
2024-02-13 00:14:00+00:00,259.0,9.66,261.0,10.39,12.25,47.59359,-54.27349
2024-02-13 00:24:00+00:00,263.0,9.21,263.0,9.23,12.25,47.59359,-54.27349
2024-02-13 00:34:00+00:00,265.0,9.32,265.0,9.64,12.25,47.59359,-54.27349
2024-02-13 00:44:00+00:00,267.0,5.48,268.0,7.52,12.25,47.59359,-54.27349
2024-02-13 00:54:00+00:00,265.0,3.89,264.0,4.29,12.25,47.59359,-54.27349
2024-02-13 01:04:00+00:00,315.0,0.01,266.0,0.0,12.25,47.59359,-54.27349
2024-02-13 01:14:00+00:00,315.0,0.01,264.0,0.0,12.17,47.59359,-54.27349
2024-02-13 01:24:00+00:00,315.0,0.01,263.0,0.0,12.17,47.59359,-54.27349
2024-02-13 01:34:00+00:00,315.0,0.01,253.0,0.0,12.17,47.59359,-54.27349
2024-02-13 01:44:00+00:00,315.0,0.01,253.0,0.0,12.17,47.59359,-54.27349
2024-02-13 01:54:00+00:00,315.0,0.01,253.0,0.0,12.17,47.59359,-54.27349
2024-02-13 02:04:00+00:00,315.0,0.01,253.0,0.0,12.17,47.59359,-54.27349
2024-02-13 02:14:00+00:00,315.0,0.01,253.0,0.0,12.17,47.59359,-54.27349
2024-02-13 02:24:00+00:00,315.0,0.01,253.0,0.0,12.17,47.59359,-54.27349
2024-02-13 02:34:00+00:00,315.0,0.01,253.0,0.0,12.17,47.59359,-54.27349
2024-02-13 02:44:00+00:00,252.0,3.09,255.0,3.27,12.17,47.59359,-54.27349
2024-02-13 02:54:00+00:00,253.0,3.94,253.0,3.95,12.17,47.59359,-54.27349
2024-02-13 03:04:00+00:00,315.0,0.01,260.0,0.0,12.17,47.59359,-54.27349
2024-02-13 03:14:00+00:00,315.0,0.01,260.0,0.0,12.17,47.59359,-54.27349
2024-02-13 03:24:00+00:00,315.0,0.01,262.0,0.0,12.17,47.59359,-54.27349
2024-02-13 03:34:00+00:00,315.0,0.01,262.0,0.0,12.17,47.59359,-54.27349
2024-02-13 03:44:00+00:00,315.0,0.01,262.0,0.0,12.17,47.59359,-54.27349
2024-02-13 03:54:00+00:00,315.0,0.01,264.0,0.0,12.17,47.59359,-54.27349
2024-02-13 04:04:00+00:00,315.0,0.01,262.0,0.0,12.17,47.59359,-54.27349
2024-02-13 04:14:00+00:00,315.0,0.01,263.0,0.0,12.09,47.59359,-54.27349
2024-02-13 04:24:00+00:00,266.0,9.26,269.0,9.59,12.09,47.59359,-54.27349
2024-02-13 04:34:00+00:00,270.0,9.08,270.0,9.09,12.09,47.59359,-54.27349
2024-02-13 04:44:00+00:00,267.0,9.88,266.0,10.49,12.09,47.59359,-54.27349
2024-02-13 04:54:00+00:00,268.0,9.59,265.0,10.1,12.09,47.59359,-54.27349
2024-02-13 05:04:00+00:00,270.0,9.94,272.0,10.69,12.09,47.59359,-54.27349
2024-02-13 05:14:00+00:00,270.0,9.76,270.0,10.64,12.09,47.59359,-54.27349
2024-02-13 05:24:00+00:00,271.0,9.31,272.0,9.49,12.09,47.59359,-54.27349
2024-02-13 05:34:00+00:00,315.0,0.01,268.0,0.0,12.09,47.59359,-54.27349
2024-02-13 05:44:00+00:00,315.0,0.01,265.0,0.0,12.09,47.59359,-54.27349
2024-02-13 05:54:00+00:00,315.0,0.01,273.0,0.0,12.09,47.59359,-54.27349
2024-02-13 06:04:00+00:00,263.0,9.81,264.0,9.94,12.09,47.59359,-54.27349
2024-02-13 06:14:01+00:00,269.0,8.42,267.0,10.75,12.09,47.59359,-54.27349
2024-02-13 06:24:01+00:00,267.0,9.0,269.0,10.56,12.09,47.59359,-54.27349
2024-02-13 06:34:01+00:00,257.0,9.71,262.0,10.71,12.09,47.59359,-54.27349
2024-02-13 06:44:01+00:00,256.0,10.26,254.0,10.82,12.09,47.59359,-54.27349
2024-02-13 06:54:01+00:00,257.0,10.2,256.0,10.91,12.09,47.59359,-54.27349
2024-02-13 07:04:01+00:00,261.0,10.0,261.0,10.37,12.09,47.59359,-54.27349
2024-02-13 07:14:01+00:00,315.0,0.01,260.0,0.0,12.09,47.59359,-54.27349
2024-02-13 07:24:01+00:00,248.0,8.7,251.0,10.93,12.09,47.59359,-54.27349
2024-02-13 07:34:01+00:00,248.0,10.26,250.0,11.24,12.09,47.59359,-54.27349
2024-02-13 07:44:01+00:00,249.0,9.85,252.0,11.02,12.09,47.59359,-54.27349
2024-02-13 07:54:01+00:00,243.0,8.99,248.0,11.23,12.09,47.59359,-54.27349
2024-02-13 08:04:01+00:00,249.0,10.18,252.0,11.05,12.09,47.59359,-54.27349
2024-02-13 08:14:00+00:00,248.0,9.69,251.0,10.91,12.01,47.59359,-54.27349
2024-02-13 08:24:00+00:00,255.0,10.17,254.0,10.91,12.01,47.59359,-54.27349
2024-02-13 08:34:00+00:00,252.0,10.08,255.0,10.49,12.01,47.59359,-54.27349
2024-02-13 08:44:00+00:00,252.0,9.68,253.0,10.75,12.01,47.59359,-54.27349
2024-02-13 08:54:00+00:00,251.0,9.38,252.0,10.36,12.01,47.59359,-54.27349
2024-02-13 09:04:00+00:00,252.0,10.08,247.0,10.29,12.01,47.59359,-54.27349
2024-02-13 09:14:01+00:00,252.0,8.8,252.0,10.18,12.01,47.59359,-54.27349
2024-02-13 09:24:01+00:00,256.0,8.92,253.0,10.12,12.01,47.59359,-54.27349
2024-02-13 09:34:01+00:00,263.0,9.08,260.0,10.12,12.01,47.59359,-54.27349
2024-02-13 09:44:01+00:00,274.0,9.3,277.0,9.79,12.01,47.59359,-54.27349
2024-02-13 09:54:01+00:00,266.0,7.64,266.0,7.66,12.01,47.59359,-54.27349
2024-02-13 10:04:01+00:00,263.0,7.75,271.0,9.68,12.01,47.59359,-54.27349
2024-02-13 12:14:00+00:00,313.0,7.37,316.0,7.69,11.93,47.59359,-54.27349
2024-02-13 12:24:00+00:00,302.0,7.65,300.0,8.15,11.93,47.59359,-54.27349
2024-02-13 12:34:00+00:00,315.0,0.01,309.0,0.0,11.93,47.59359,-54.27349
2024-02-13 12:44:00+00:00,294.0,7.36,300.0,8.04,11.93,47.59359,-54.27349
2024-02-13 12:54:00+00:00,315.0,0.01,290.0,0.0,11.93,47.59359,-54.27349
2024-02-13 13:04:00+00:00,289.0,6.48,292.0,7.03,11.93,47.59359,-54.27349
2024-02-13 13:14:00+00:00,285.0,7.14,284.0,8.37,12.41,47.59359,-54.27349
2024-02-13 13:24:00+00:00,294.0,6.7,299.0,7.43,12.41,47.59359,-54.27349
2024-02-13 13:34:00+00:00,315.0,0.01,287.0,0.0,12.41,47.59359,-54.27349
2024-02-13 13:44:00+00:00,315.0,0.01,277.0,0.0,12.41,47.59359,-54.27349
2024-02-13 13:54:00+00:00,315.0,0.01,289.0,0.0,12.41,47.59359,-54.27349
2024-02-13 14:04:00+00:00,315.0,0.01,289.0,0.0,12.41,47.59359,-54.27349
2024-02-13 14:14:00+00:00,315.0,0.01,289.0,0.0,12.89,47.59359,-54.27349
2024-02-13 14:24:00+00:00,315.0,0.01,251.0,0.0,12.89,47.59359,-54.27349
2024-02-13 14:34:00+00:00,315.0,0.01,251.0,0.0,12.89,47.59359,-54.27349
2024-02-13 14:44:00+00:00,315.0,0.01,251.0,0.0,12.89,47.59359,-54.27349
2024-02-13 14:54:00+00:00,315.0,0.01,265.0,0.0,12.89,47.59359,-54.27349
2024-02-13 15:04:00+00:00,315.0,0.01,265.0,0.0,12.89,47.59359,-54.27349
2024-02-13 15:14:00+00:00,261.0,6.35,247.0,7.01,13.05,47.59359,-54.27349
2024-02-13 15:24:00+00:00,254.0,7.56,254.0,9.9,13.05,47.59359,-54.27349
2024-02-13 15:34:00+00:00,269.0,6.16,258.0,6.85,13.05,47.59359,-54.27349
2024-02-13 15:44:00+00:00,261.0,8.4,255.0,9.49,13.05,47.59359,-54.27349
2024-02-13 15:54:00+00:00,279.0,6.38,278.0,6.82,13.05,47.59359,-54.27349
2024-02-13 16:04:00+00:00,260.0,6.55,261.0,7.77,13.05,47.59359,-54.27349
2024-02-13 16:14:00+00:00,262.0,7.37,264.0,8.23,13.13,47.59359,-54.27349
2024-02-13 16:24:00+00:00,287.0,8.28,290.0,10.49,13.13,47.59359,-54.27349
2024-02-13 16:34:00+00:00,273.0,6.96,275.0,8.29,13.13,47.59359,-54.27349
2024-02-13 16:44:00+00:00,269.0,7.84,269.0,8.63,13.13,47.59359,-54.27349
2024-02-13 16:54:00+00:00,273.0,8.93,272.0,9.78,13.13,47.59359,-54.27349
2024-02-13 17:04:00+00:00,269.0,8.17,268.0,9.33,13.13,47.59359,-54.27349
2024-02-13 17:14:00+00:00,258.0,7.14,261.0,9.85,13.05,47.59359,-54.27349
2024-02-13 17:24:00+00:00,315.0,0.01,266.0,0.0,13.05,47.59359,-54.27349
2024-02-13 17:34:00+00:00,315.0,0.01,266.0,0.0,13.05,47.59359,-54.27349
2024-02-13 17:44:00+00:00,315.0,0.01,266.0,0.0,13.05,47.59359,-54.27349
2024-02-13 17:54:00+00:00,263.0,5.76,263.0,5.77,13.05,47.59359,-54.27349
2024-02-13 18:04:00+00:00,263.0,8.56,260.0,10.01,13.05,47.59359,-54.27349
2024-02-13 18:14:00+00:00,315.0,0.01,255.0,0.0,13.68,47.59359,-54.27349
2024-02-13 18:24:00+00:00,255.0,8.87,252.0,10.1,13.68,47.59359,-54.27349
2024-02-13 18:34:00+00:00,271.0,8.63,271.0,9.43,13.68,47.59359,-54.27349
2024-02-13 18:44:00+00:00,262.0,8.35,259.0,9.61,13.68,47.59359,-54.27349
2024-02-13 18:54:00+00:00,269.0,9.72,264.0,10.37,13.68,47.59359,-54.27349
2024-02-13 19:04:00+00:00,261.0,8.79,265.0,10.53,13.68,47.59359,-54.27349
2024-02-13 19:14:00+00:00,268.0,9.83,269.0,10.47,13.37,47.59359,-54.27349
2024-02-13 19:24:00+00:00,315.0,0.01,267.0,0.0,13.37,47.59359,-54.27349
2024-02-13 19:34:00+00:00,247.0,10.58,241.0,11.34,13.37,47.59359,-54.27349
2024-02-13 19:44:00+00:00,254.0,10.02,254.0,10.79,13.37,47.59359,-54.27349
2024-02-13 19:54:00+00:00,253.0,9.89,254.0,10.47,13.37,47.59359,-54.27349
2024-02-13 20:04:00+00:00,255.0,10.03,257.0,10.58,13.37,47.59359,-54.27349
2024-02-13 20:14:00+00:00,250.0,9.82,248.0,10.02,12.65,47.59359,-54.27349
2024-02-13 20:24:00+00:00,247.0,9.94,246.0,10.0,12.65,47.59359,-54.27349
2024-02-13 20:34:00+00:00,315.0,0.01,244.0,0.0,12.65,47.59359,-54.27349
2024-02-13 20:44:00+00:00,315.0,0.01,249.0,0.0,12.65,47.59359,-54.27349
2024-02-13 20:54:00+00:00,315.0,0.01,249.0,0.0,12.65,47.59359,-54.27349
2024-02-13 21:04:00+00:00,315.0,0.01,249.0,0.0,12.65,47.59359,-54.27349
2024-02-13 21:14:01+00:00,315.0,0.01,249.0,0.0,12.33,47.59359,-54.27349
2024-02-13 21:24:01+00:00,315.0,0.01,249.0,0.0,12.33,47.59359,-54.27349
2024-02-13 21:34:01+00:00,315.0,0.01,249.0,0.0,12.33,47.59359,-54.27349
2024-02-13 21:44:01+00:00,315.0,0.01,249.0,0.0,12.33,47.59359,-54.27349
2024-02-13 21:54:01+00:00,315.0,0.01,215.0,0.0,12.33,47.59359,-54.27349
2024-02-13 22:04:01+00:00,315.0,0.01,219.0,0.0,12.33,47.59359,-54.27349
2024-02-13 22:14:01+00:00,315.0,0.01,176.0,0.0,12.33,47.59359,-54.27349
2024-02-13 22:24:01+00:00,315.0,0.01,176.0,0.0,12.33,47.59359,-54.27349
2024-02-13 22:34:01+00:00,315.0,0.01,176.0,0.0,12.33,47.59359,-54.27349
2024-02-13 22:44:01+00:00,315.0,0.01,197.0,0.0,12.33,47.59359,-54.27349
2024-02-13 22:54:01+00:00,199.0,2.99,217.0,3.43,12.33,47.59359,-54.27349
2024-02-13 23:04:01+00:00,197.0,4.25,206.0,4.82,12.33,47.59359,-54.27349
2024-02-13 23:14:00+00:00,201.0,3.88,209.0,4.4,12.25,47.59359,-54.27349
2024-02-13 23:24:00+00:00,315.0,0.01,192.0,0.0,12.25,47.59359,-54.27349
2024-02-13 23:34:00+00:00,203.0,4.06,208.0,4.66,12.25,47.59359,-54.27349
2024-02-13 23:44:00+00:00,192.0,4.87,204.0,5.42,12.25,47.59359,-54.27349
2024-02-13 23:54:00+00:00,198.0,5.62,201.0,6.0,12.25,47.59359,-54.27349
